RYR99WT EGSS-EKCH

Flight info

Callsign RYR99WT
Flight time 1h 19m
Altitude 39000
Route CLN P44 SOMVA DCT MAVAS DCT TULIP Y12 SPY DCT DOSUR P729 TUDLO
Aircraft B738/M-SDE3FGILRWY/SB1

Departure

Time 2026-05-06 11:48
Airport London Stansted Airport (EGSS)

Arrival

Time 2026-05-06 13:08
Airport Copenhagen Kastrup Airport (EKCH)
Time Latitude Longitude Altitude Speed Heading
2026-05-06 11:07 51.89120 0.25839 359 ft 0 kts 221°
2026-05-06 11:35 51.89132 0.25858 351 ft 4 kts 234°
2026-05-06 11:36 51.89142 0.25896 356 ft 4 kts 273°
2026-05-06 11:36 51.89136 0.25924 356 ft 0 kts 313°
2026-05-06 11:39 51.89140 0.25917 348 ft 3 kts 313°
2026-05-06 11:39 51.89160 0.25883 355 ft 6 kts 313°
2026-05-06 11:39 51.89200 0.25813 352 ft 11 kts 313°
2026-05-06 11:40 51.89250 0.25725 356 ft 11 kts 313°
2026-05-06 11:40 51.89299 0.25639 348 ft 10 kts 313°
2026-05-06 11:40 51.89336 0.25547 349 ft 10 kts 271°
2026-05-06 11:40 51.89296 0.25459 348 ft 10 kts 223°
2026-05-06 11:41 51.89245 0.25382 352 ft 10 kts 223°
2026-05-06 11:41 51.89190 0.25299 350 ft 12 kts 223°
2026-05-06 11:41 51.89114 0.25184 348 ft 19 kts 223°
2026-05-06 11:41 51.89012 0.25031 348 ft 20 kts 223°
2026-05-06 11:42 51.88911 0.24880 351 ft 20 kts 223°
2026-05-06 11:42 51.88813 0.24733 354 ft 19 kts 223°
2026-05-06 11:42 51.88718 0.24591 348 ft 18 kts 223°
2026-05-06 11:42 51.88627 0.24454 348 ft 18 kts 223°
2026-05-06 11:43 51.88538 0.24321 349 ft 17 kts 223°
2026-05-06 11:43 51.88453 0.24194 353 ft 16 kts 223°
2026-05-06 11:43 51.88372 0.24070 348 ft 16 kts 223°
2026-05-06 11:44 51.88217 0.23839 350 ft 14 kts 222°
2026-05-06 11:44 51.88153 0.23721 353 ft 14 kts 256°
2026-05-06 11:44 51.88195 0.23591 352 ft 13 kts 301°
2026-05-06 11:44 51.88166 0.23465 354 ft 13 kts 223°
2026-05-06 11:45 51.88099 0.23365 353 ft 14 kts 223°
2026-05-06 11:45 51.88021 0.23248 348 ft 17 kts 223°
2026-05-06 11:45 51.87934 0.23116 351 ft 17 kts 223°
2026-05-06 11:45 51.87847 0.22986 348 ft 17 kts 223°
2026-05-06 11:46 51.87764 0.22861 353 ft 16 kts 222°
2026-05-06 11:46 51.87684 0.22742 350 ft 15 kts 222°
2026-05-06 11:46 51.87632 0.22665 354 ft 15 kts 223°
2026-05-06 11:46 51.87558 0.22552 352 ft 15 kts 223°
2026-05-06 11:47 51.87525 0.22417 347 ft 15 kts 303°
2026-05-06 11:47 51.87600 0.22296 333 ft 16 kts 323°
2026-05-06 11:47 51.87702 0.22285 335 ft 15 kts 31°
2026-05-06 11:47 51.87780 0.22398 339 ft 15 kts 43°
2026-05-06 11:48 51.87977 0.22689 338 ft 73 kts 42°
2026-05-06 11:48 51.88522 0.23510 340 ft 138 kts 43°
2026-05-06 11:48 51.89324 0.24724 669 ft 165 kts 39°
2026-05-06 11:48 51.90193 0.25907 1667 ft 155 kts 25°
2026-05-06 11:49 51.91158 0.26585 2547 ft 154 kts 25°
2026-05-06 11:49 51.92013 0.27889 2878 ft 189 kts 59°
2026-05-06 11:49 51.92170 0.30150 3119 ft 224 kts 102°
2026-05-06 11:49 51.91473 0.32521 3519 ft 239 kts 114°
2026-05-06 11:50 51.90461 0.35729 4363 ft 242 kts 113°
2026-05-06 11:50 51.89966 0.37377 4917 ft 239 kts 112°
2026-05-06 11:50 51.89248 0.39828 5587 ft 245 kts 112°
2026-05-06 11:50 51.88486 0.42412 6021 ft 260 kts 113°
2026-05-06 11:51 51.87691 0.45106 5984 ft 268 kts 113°
2026-05-06 11:51 51.86893 0.47810 5985 ft 265 kts 112°
2026-05-06 11:51 51.86104 0.50491 6000 ft 263 kts 113°
2026-05-06 11:51 51.85309 0.53195 6300 ft 269 kts 113°
2026-05-06 11:52 51.84510 0.55915 7146 ft 271 kts 113°
2026-05-06 11:52 51.83694 0.58705 7838 ft 278 kts 111°
2026-05-06 11:52 51.83110 0.61708 8550 ft 283 kts 99°
2026-05-06 11:52 51.82913 0.64898 9263 ft 288 kts 88°
2026-05-06 11:53 51.83021 0.68159 9960 ft 294 kts 83°
2026-05-06 11:53 51.83197 0.71505 10444 ft 308 kts 83°
2026-05-06 11:53 51.83381 0.75075 10671 ft 330 kts 84°
2026-05-06 11:53 51.83535 0.78848 11173 ft 340 kts 85°
2026-05-06 11:54 51.83675 0.82671 11986 ft 342 kts 85°
2026-05-06 11:54 51.83813 0.86544 12661 ft 348 kts 85°
2026-05-06 11:54 51.83950 0.90419 13471 ft 351 kts 86°
2026-05-06 11:54 51.84091 0.94393 14109 ft 359 kts 86°
2026-05-06 11:55 51.84233 0.98425 14940 ft 357 kts 86°
2026-05-06 11:55 51.84375 1.02456 15711 ft 361 kts 86°
2026-05-06 11:55 51.84518 1.06546 16373 ft 367 kts 86°
2026-05-06 11:55 51.84661 1.10716 16978 ft 374 kts 86°
2026-05-06 11:56 51.84889 1.14905 17792 ft 376 kts 78°
2026-05-06 11:56 51.85768 1.18903 18378 ft 381 kts 65°
2026-05-06 11:56 51.86860 1.22827 19037 ft 383 kts 65°
2026-05-06 11:56 51.87966 1.26764 19661 ft 387 kts 65°
2026-05-06 11:57 51.89077 1.30762 20246 ft 391 kts 65°
2026-05-06 11:57 51.90186 1.34808 20854 ft 395 kts 66°
2026-05-06 11:57 51.91293 1.38895 21472 ft 398 kts 66°
2026-05-06 11:57 51.92401 1.43022 22058 ft 402 kts 66°
2026-05-06 11:58 51.93520 1.47205 22617 ft 406 kts 67°
2026-05-06 11:58 51.94647 1.51431 23159 ft 411 kts 67°
2026-05-06 11:58 51.95784 1.55701 23688 ft 415 kts 67°
2026-05-06 11:58 51.96930 1.60011 24143 ft 418 kts 67°
2026-05-06 11:59 51.98083 1.64354 24638 ft 420 kts 67°
2026-05-06 11:59 51.99256 1.68709 25128 ft 422 kts 65°
2026-05-06 11:59 52.00601 1.72958 25604 ft 425 kts 62°
2026-05-06 11:59 52.02039 1.77161 26066 ft 427 kts 61°
2026-05-06 12:00 52.03502 1.81378 26517 ft 430 kts 61°
2026-05-06 12:00 52.04961 1.85630 26959 ft 432 kts 61°
2026-05-06 12:00 52.06412 1.89927 27401 ft 435 kts 62°
2026-05-06 12:00 52.07860 1.94259 27828 ft 437 kts 62°
2026-05-06 12:01 52.09289 1.98568 28236 ft 440 kts 62°
2026-05-06 12:01 52.10737 2.02964 28642 ft 442 kts 62°
2026-05-06 12:01 52.12209 2.07449 29036 ft 445 kts 62°
2026-05-06 12:01 52.13648 2.11844 29424 ft 447 kts 62°
2026-05-06 12:02 52.15115 2.16326 29787 ft 450 kts 62°
2026-05-06 12:02 52.16590 2.20839 30087 ft 453 kts 62°
2026-05-06 12:02 52.18074 2.25384 30396 ft 455 kts 62°
2026-05-06 12:02 52.19560 2.29944 30759 ft 456 kts 62°
2026-05-06 12:03 52.21047 2.34516 31073 ft 457 kts 62°
2026-05-06 12:03 52.22538 2.39107 31324 ft 460 kts 62°
2026-05-06 12:03 52.24037 2.43733 31579 ft 462 kts 63°
2026-05-06 12:03 52.25541 2.48380 31915 ft 462 kts 63°
2026-05-06 12:04 52.27037 2.53013 32327 ft 461 kts 63°
2026-05-06 12:04 52.28528 2.57638 32737 ft 459 kts 63°
2026-05-06 12:04 52.30009 2.62252 33093 ft 459 kts 63°
2026-05-06 12:04 52.31270 2.67030 33418 ft 458 kts 72°
2026-05-06 12:05 52.32184 2.72009 33771 ft 457 kts 75°
2026-05-06 12:05 52.33034 2.77018 34087 ft 457 kts 75°
2026-05-06 12:05 52.33874 2.82027 34342 ft 457 kts 75°
2026-05-06 12:05 52.34725 2.87031 34615 ft 457 kts 75°
2026-05-06 12:06 52.35591 2.92030 34879 ft 457 kts 75°
2026-05-06 12:06 52.36467 2.97034 35110 ft 458 kts 75°
2026-05-06 12:06 52.37347 3.02045 35330 ft 459 kts 75°
2026-05-06 12:06 52.38226 3.07064 35571 ft 459 kts 75°
2026-05-06 12:07 52.39097 3.12089 35833 ft 458 kts 77°
2026-05-06 12:07 52.39686 3.17199 36066 ft 457 kts 85°
2026-05-06 12:07 52.39784 3.22389 36277 ft 456 kts 95°
2026-05-06 12:07 52.39561 3.27561 36515 ft 455 kts 96°
2026-05-06 12:08 52.39294 3.32733 36714 ft 456 kts 96°
2026-05-06 12:08 52.39025 3.37906 36907 ft 457 kts 96°
2026-05-06 12:08 52.38769 3.43094 37128 ft 457 kts 96°
2026-05-06 12:08 52.38525 3.48284 37346 ft 457 kts 96°
2026-05-06 12:09 52.38289 3.53478 37550 ft 458 kts 96°
2026-05-06 12:09 52.38055 3.58675 37749 ft 458 kts 96°
2026-05-06 12:09 52.37819 3.63880 37936 ft 459 kts 96°
2026-05-06 12:09 52.37581 3.69090 38121 ft 459 kts 96°
2026-05-06 12:10 52.37340 3.74300 38310 ft 460 kts 96°
2026-05-06 12:10 52.37096 3.79505 38490 ft 460 kts 96°
2026-05-06 12:10 52.37044 3.84752 38631 ft 462 kts 88°
2026-05-06 12:10 52.37457 3.89972 38744 ft 464 kts 78°
2026-05-06 12:11 52.38304 3.95059 38891 ft 463 kts 75°
2026-05-06 12:11 52.39229 4.00130 38893 ft 465 kts 74°
2026-05-06 12:11 52.41099 4.10299 38903 ft 467 kts 75°
2026-05-06 12:12 52.42915 4.20505 38903 ft 467 kts 75°
2026-05-06 12:12 52.44694 4.30744 38897 ft 467 kts 75°
2026-05-06 12:13 52.46459 4.40996 38892 ft 467 kts 75°
2026-05-06 12:13 52.48206 4.51191 38889 ft 467 kts 75°
2026-05-06 12:14 52.49958 4.61459 38887 ft 467 kts 75°
2026-05-06 12:14 52.51714 4.71809 38884 ft 467 kts 76°
2026-05-06 12:15 52.53646 4.81985 38877 ft 468 kts 66°
2026-05-06 12:15 52.57069 4.90955 38878 ft 468 kts 48°
2026-05-06 12:16 52.61551 4.98709 38888 ft 468 kts 45°
2026-05-06 12:16 52.66104 5.06374 38897 ft 468 kts 46°
2026-05-06 12:17 52.70624 5.14095 38896 ft 468 kts 46°
2026-05-06 12:17 52.75118 5.21877 38895 ft 468 kts 46°
2026-05-06 12:18 52.79598 5.29690 38894 ft 469 kts 46°
2026-05-06 12:18 52.84073 5.37520 38894 ft 469 kts 46°
2026-05-06 12:19 52.88550 5.45376 38900 ft 469 kts 47°
2026-05-06 12:19 52.93025 5.53252 38900 ft 470 kts 47°
2026-05-06 12:20 52.97503 5.61157 38904 ft 470 kts 47°
2026-05-06 12:20 53.01972 5.69072 38906 ft 470 kts 47°
2026-05-06 12:21 53.06445 5.77021 38906 ft 471 kts 47°
2026-05-06 12:21 53.10914 5.84989 38919 ft 471 kts 47°
2026-05-06 12:22 53.15381 5.92980 38910 ft 471 kts 47°
2026-05-06 12:22 53.19843 6.00988 38912 ft 471 kts 47°
2026-05-06 12:23 53.24302 6.09015 38906 ft 472 kts 47°
2026-05-06 12:23 53.28755 6.17061 38914 ft 472 kts 47°
2026-05-06 12:24 53.33207 6.25128 38896 ft 472 kts 47°
2026-05-06 12:24 53.37652 6.33213 38904 ft 472 kts 47°
2026-05-06 12:25 53.42092 6.41313 38897 ft 472 kts 47°
2026-05-06 12:25 53.46528 6.49433 38907 ft 472 kts 47°
2026-05-06 12:26 53.50929 6.57515 38906 ft 472 kts 47°
2026-05-06 12:26 53.55350 6.65662 38904 ft 472 kts 47°
2026-05-06 12:27 53.59762 6.73821 38908 ft 471 kts 48°
2026-05-06 12:27 53.64170 6.81998 38904 ft 471 kts 48°
2026-05-06 12:28 53.68572 6.90190 38909 ft 471 kts 48°
2026-05-06 12:28 53.72963 6.98393 38909 ft 471 kts 48°
2026-05-06 12:29 53.77345 7.06603 38911 ft 470 kts 48°
2026-05-06 12:29 53.81716 7.14822 38912 ft 470 kts 48°
2026-05-06 12:30 53.86075 7.23047 38914 ft 469 kts 48°
2026-05-06 12:30 53.90428 7.31287 38913 ft 469 kts 48°
2026-05-06 12:31 53.94773 7.39539 38916 ft 469 kts 48°
2026-05-06 12:31 53.99094 7.47774 38895 ft 463 kts 48°
2026-05-06 12:32 54.03343 7.55898 38900 ft 457 kts 49°
2026-05-06 12:32 54.07553 7.63976 38905 ft 455 kts 49°
2026-05-06 12:33 54.11736 7.72029 38910 ft 453 kts 49°
2026-05-06 12:33 54.15197 7.78711 38913 ft 452 kts 49°
2026-05-06 12:34 54.19361 7.86775 38910 ft 453 kts 49°
2026-05-06 12:34 54.23528 7.94872 38914 ft 454 kts 49°
2026-05-06 12:35 54.27706 8.03017 38917 ft 457 kts 49°
2026-05-06 12:35 54.31898 8.11218 38917 ft 459 kts 49°
2026-05-06 12:36 54.36105 8.19474 38920 ft 461 kts 49°
2026-05-06 12:36 54.40330 8.27795 38915 ft 463 kts 49°
2026-05-06 12:37 54.44566 8.36166 38907 ft 465 kts 49°
2026-05-06 12:37 54.48806 8.44573 38910 ft 466 kts 49°
2026-05-06 12:38 54.53048 8.53015 38908 ft 466 kts 49°
2026-05-06 12:38 54.57283 8.61470 38903 ft 466 kts 49°
2026-05-06 12:39 54.59397 8.65703 38746 ft 469 kts 49°
2026-05-06 12:39 54.61534 8.69988 38216 ft 471 kts 49°
2026-05-06 12:39 54.63665 8.74268 37681 ft 469 kts 50°
2026-05-06 12:39 54.65783 8.78532 37143 ft 467 kts 50°
2026-05-06 12:40 54.67894 8.82787 36614 ft 466 kts 50°
2026-05-06 12:40 54.70000 8.87040 36077 ft 465 kts 50°
2026-05-06 12:40 54.72093 8.91276 35622 ft 462 kts 50°
2026-05-06 12:40 54.74173 8.95489 35259 ft 458 kts 50°
2026-05-06 12:41 54.76229 8.99663 34844 ft 455 kts 51°
2026-05-06 12:41 54.78272 9.03818 34440 ft 452 kts 51°
2026-05-06 12:41 54.80302 9.07955 34046 ft 449 kts 51°
2026-05-06 12:41 54.82315 9.12061 33611 ft 446 kts 51°
2026-05-06 12:42 54.84314 9.16147 33173 ft 443 kts 51°
2026-05-06 12:42 54.86299 9.20205 32777 ft 439 kts 51°
2026-05-06 12:42 54.88294 9.24191 32382 ft 436 kts 50°
2026-05-06 12:42 54.90293 9.28115 32006 ft 432 kts 50°
2026-05-06 12:43 54.92283 9.32009 31628 ft 429 kts 50°
2026-05-06 12:43 54.94254 9.35876 31256 ft 425 kts 50°
2026-05-06 12:43 54.96202 9.39715 30900 ft 422 kts 50°
2026-05-06 12:43 54.98135 9.43539 30537 ft 419 kts 50°
2026-05-06 12:44 55.00051 9.47342 30194 ft 416 kts 50°
2026-05-06 12:44 55.01956 9.51131 29793 ft 414 kts 50°
2026-05-06 12:44 55.03842 9.54888 29409 ft 410 kts 50°
2026-05-06 12:44 55.05710 9.58614 29042 ft 406 kts 50°
2026-05-06 12:45 55.07556 9.62300 28677 ft 402 kts 50°
2026-05-06 12:45 55.09331 9.65951 28300 ft 397 kts 55°
2026-05-06 12:45 55.11828 9.74340 27592 ft 385 kts 75°
2026-05-06 12:46 55.12630 9.78772 27246 ft 381 kts 76°
2026-05-06 12:46 55.13397 9.83198 26872 ft 379 kts 76°
2026-05-06 12:46 55.14164 9.87650 26521 ft 376 kts 76°
2026-05-06 12:46 55.14910 9.91956 26175 ft 374 kts 75°
2026-05-06 12:47 55.15678 9.96350 25826 ft 372 kts 75°
2026-05-06 12:47 55.16435 10.00654 25496 ft 370 kts 75°
2026-05-06 12:47 55.17181 10.04889 25144 ft 368 kts 75°
2026-05-06 12:47 55.17932 10.09151 24826 ft 366 kts 75°
2026-05-06 12:48 55.18682 10.13407 24482 ft 365 kts 75°
2026-05-06 12:48 55.19427 10.17648 24158 ft 364 kts 75°
2026-05-06 12:48 55.20169 10.21875 23824 ft 363 kts 75°
2026-05-06 12:48 55.20907 10.26095 23483 ft 362 kts 75°
2026-05-06 12:49 55.21643 10.30306 23091 ft 361 kts 74°
2026-05-06 12:49 55.22373 10.34502 22725 ft 360 kts 74°
2026-05-06 12:49 55.23099 10.38676 22396 ft 357 kts 74°
2026-05-06 12:49 55.23819 10.42827 22047 ft 355 kts 74°
2026-05-06 12:50 55.24531 10.46945 21736 ft 352 kts 74°
2026-05-06 12:50 55.25239 10.51048 21388 ft 351 kts 74°
2026-05-06 12:50 55.25943 10.55129 21051 ft 349 kts 74°
2026-05-06 12:50 55.26637 10.59166 20879 ft 344 kts 74°
2026-05-06 12:51 55.27330 10.63215 20420 ft 347 kts 74°
2026-05-06 12:51 55.28021 10.67250 20096 ft 345 kts 74°
2026-05-06 12:51 55.28711 10.71274 19768 ft 344 kts 74°
2026-05-06 12:51 55.29398 10.75287 19439 ft 343 kts 73°
2026-05-06 12:52 55.30081 10.79284 19109 ft 342 kts 73°
2026-05-06 12:52 55.30763 10.83280 18793 ft 341 kts 73°
2026-05-06 12:52 55.31442 10.87267 18443 ft 340 kts 73°
2026-05-06 12:52 55.32115 10.91234 18103 ft 339 kts 73°
2026-05-06 12:53 55.32785 10.95193 17731 ft 337 kts 73°
2026-05-06 12:53 55.33449 10.99133 17389 ft 336 kts 74°
2026-05-06 12:53 55.34103 11.03065 17035 ft 334 kts 74°
2026-05-06 12:53 55.34752 11.06974 16712 ft 332 kts 74°
2026-05-06 12:54 55.35396 11.10851 16399 ft 330 kts 74°
2026-05-06 12:54 55.36035 11.14712 16057 ft 329 kts 74°
2026-05-06 12:54 55.36669 11.18554 15745 ft 327 kts 74°
2026-05-06 12:54 55.37301 11.22391 15415 ft 326 kts 74°
2026-05-06 12:55 55.37929 11.26207 15096 ft 324 kts 74°
2026-05-06 12:55 55.38543 11.29948 14943 ft 321 kts 74°
2026-05-06 12:55 55.39167 11.33756 14910 ft 317 kts 74°
2026-05-06 12:55 55.39768 11.37434 14889 ft 309 kts 74°
2026-05-06 12:56 55.40355 11.41025 14720 ft 305 kts 74°
2026-05-06 12:56 55.40934 11.44584 14481 ft 308 kts 74°
2026-05-06 12:56 55.41525 11.48223 14096 ft 312 kts 74°
2026-05-06 12:56 55.42124 11.51913 13697 ft 314 kts 74°
2026-05-06 12:57 55.42724 11.55625 13252 ft 316 kts 74°
2026-05-06 12:57 55.43324 11.59342 12949 ft 314 kts 74°
2026-05-06 12:57 55.43949 11.62994 12648 ft 311 kts 68°
2026-05-06 12:57 55.45036 11.66279 12261 ft 311 kts 54°
2026-05-06 12:58 55.46270 11.69373 11992 ft 307 kts 56°
2026-05-06 12:58 55.47091 11.72817 11616 ft 307 kts 81°
2026-05-06 12:58 55.47302 11.76547 11305 ft 305 kts 86°
2026-05-06 12:58 55.47446 11.80258 10941 ft 301 kts 86°
2026-05-06 12:59 55.47592 11.83920 10602 ft 298 kts 85°
2026-05-06 12:59 55.47746 11.87537 10254 ft 294 kts 85°
2026-05-06 12:59 55.47909 11.91110 9916 ft 291 kts 85°
2026-05-06 12:59 55.48078 11.94639 9544 ft 287 kts 85°
2026-05-06 13:00 55.48249 11.98128 9166 ft 284 kts 84°
2026-05-06 13:00 55.48419 12.01567 8805 ft 279 kts 84°
2026-05-06 13:00 55.48585 12.04910 8463 ft 268 kts 84°
2026-05-06 13:00 55.48744 12.08125 8089 ft 259 kts 84°
2026-05-06 13:01 55.48899 12.11238 7721 ft 251 kts 84°
2026-05-06 13:01 55.49046 12.14257 7356 ft 243 kts 86°
2026-05-06 13:01 55.48981 12.17202 6990 ft 237 kts 94°
2026-05-06 13:01 55.48822 12.20059 6669 ft 232 kts 94°
2026-05-06 13:02 55.48652 12.22857 6318 ft 227 kts 95°
2026-05-06 13:02 55.48479 12.25597 5956 ft 222 kts 95°
2026-05-06 13:02 55.48308 12.28275 5592 ft 217 kts 95°
2026-05-06 13:02 55.48139 12.30893 5222 ft 213 kts 95°
2026-05-06 13:03 55.47971 12.33466 4858 ft 209 kts 95°
2026-05-06 13:03 55.47806 12.35996 4497 ft 206 kts 95°
2026-05-06 13:03 55.47683 12.38494 4119 ft 203 kts 85°
2026-05-06 13:03 55.47982 12.40861 3766 ft 199 kts 75°
2026-05-06 13:04 55.48464 12.43092 3382 ft 193 kts 56°
2026-05-06 13:04 55.49347 12.44799 3046 ft 184 kts 50°
2026-05-06 13:04 55.50223 12.46416 2659 ft 181 kts 47°
2026-05-06 13:04 55.51162 12.47916 2259 ft 178 kts 44°
2026-05-06 13:05 55.52089 12.49298 1952 ft 168 kts 44°
2026-05-06 13:05 55.52933 12.50593 1721 ft 155 kts 46°
2026-05-06 13:05 55.53729 12.51829 1530 ft 154 kts 46°
2026-05-06 13:05 55.54528 12.53070 1347 ft 153 kts 46°
2026-05-06 13:06 55.55321 12.54303 1108 ft 148 kts 45°
2026-05-06 13:06 55.56075 12.55471 889 ft 142 kts 45°
2026-05-06 13:06 55.56826 12.56639 695 ft 146 kts 45°
2026-05-06 13:06 55.57597 12.57836 491 ft 150 kts 47°
2026-05-06 13:07 55.58379 12.59044 267 ft 147 kts 46°
2026-05-06 13:07 55.59133 12.60206 59 ft 140 kts 46°
2026-05-06 13:07 55.59814 12.61275 18 ft 117 kts 41°
2026-05-06 13:07 55.60336 12.62075 18 ft 82 kts 41°
2026-05-06 13:08 55.60696 12.62630 24 ft 54 kts 41°
2026-05-06 13:08 55.60952 12.62854 22 ft 31 kts 15°
2026-05-06 13:08 55.61101 12.62916 23 ft 20 kts 20°
2026-05-06 13:08 55.61215 12.63055 25 ft 20 kts 41°
2026-05-06 13:09 55.61315 12.63213 27 ft 19 kts 41°
2026-05-06 13:09 55.61414 12.63364 25 ft 18 kts 41°
2026-05-06 13:09 55.61509 12.63511 22 ft 19 kts 41°
2026-05-06 13:09 55.61605 12.63659 24 ft 18 kts 41°
2026-05-06 13:10 55.61697 12.63802 26 ft 17 kts 41°
2026-05-06 13:10 55.61786 12.63940 26 ft 17 kts 41°
2026-05-06 13:10 55.61874 12.64071 25 ft 16 kts 34°
2026-05-06 13:10 55.61977 12.64160 23 ft 18 kts 24°
2026-05-06 13:11 55.62093 12.64257 18 ft 18 kts 26°
2026-05-06 13:11 55.62204 12.64348 15 ft 16 kts 25°
2026-05-06 13:11 55.62272 12.64493 18 ft 16 kts 65°
2026-05-06 13:11 55.62315 12.64664 19 ft 15 kts 66°
2026-05-06 13:12 55.62352 12.64831 21 ft 14 kts 85°
2026-05-06 13:12 55.62308 12.64988 19 ft 14 kts 123°
2026-05-06 13:12 55.62281 12.65144 20 ft 14 kts 74°
2026-05-06 13:12 55.62305 12.65303 22 ft 14 kts 52°
2026-05-06 13:13 55.62396 12.65327 20 ft 14 kts
2026-05-06 13:13 55.62444 12.65410 17 ft 6 kts 51°
2026-05-06 13:13 55.62482 12.65449 18 ft 6 kts 24°
2026-05-06 13:13 55.62508 12.65468 18 ft 3 kts 22°
2026-05-06 13:14 55.62515 12.65473 19 ft 0 kts 22°